Merrill, WI

10:59 PM CST on February 24, 2017 (GMT -0600)
Merrill Municipal

Weather History for KRRL - January, 2013

Change the Weather History Date:

Thursday, January 31, 2013

  Actual Average Record
Temperature  
Mean Temperature 6 °F -  
Max Temperature 12 °F 25 °F 45 °F (1952)
Min Temperature 0 °F 1 °F -29 °F (1918)
Degree Days  
Heating Degree Days 58    
Moisture  
Dew Point 0 °F    
Average Humidity 70    
Maximum Humidity 79    
Minimum Humidity 57    
Precipitation  
Precipitation 0.00 in - - ()
Sea Level Pressure  
Sea Level Pressure 29.76 in    
Wind  
Wind Speed 11 mph (NW)    
Max Wind Speed 16 mph    
Max Gust Speed 25 mph    
Visibility 10 miles    
Events Snow    
Averages and records for this station are not official NWS values.
T = Trace of Precipitation, MM = Missing Value Source: NWS Daily Summary

Daily Weather History Graph

Daily Weather History Graph

Search for Another Location

Airport or City:

Trip Planner

Search our weather history database for the weather conditions in past years. The results will help you decide how hot, cold, wet, or windy it might be!

Date:

Astronomy

Jan. 31, 2013 Rise Set
Actual Time 7:19 AM CST 5:05 PM CST
Civil Twilight 6:48 AM CST 5:36 PM CST
Nautical Twilight 6:13 AM CST 6:12 PM CST
Astronomical Twilight 5:38 AM CST 6:46 PM CST
Moon 10:25 PM CST (1/31) 9:03 AM CST (1/31)
Length of Visible Light 10h 48m
Length of Day
9h 45m
Waning Gibbous, 79% of the Moon is Illuminated
Jan 31
Waning Gibbous
Feb 3
Last Quarter
Feb 10
New
Feb 17
First Quarter
Feb 25
Full

Hourly Weather History & Observations

Time (CST) Temp. Windchill Dew Point Humidity Pressure Visibility Wind Dir Wind Speed Gust Speed Precip Events Conditions
12:15 AM 12.2 °F -1.0 °F 5.0 °F 73% 29.52 in 10.0 mi NW 10.4 mph 20.7 mph N/A   Overcast
12:35 AM 12.2 °F -1.0 °F 5.0 °F 73% 29.53 in 10.0 mi NW 10.4 mph 16.1 mph N/A   Overcast
12:55 AM 12.2 °F -3.1 °F 5.0 °F 73% 29.53 in 10.0 mi WNW 13.8 mph 20.7 mph N/A   Overcast
1:15 AM 10.4 °F -5.4 °F 5.0 °F 79% 29.54 in 10.0 mi WNW 13.8 mph 19.6 mph N/A   Overcast
1:35 AM 10.4 °F -4.1 °F 5.0 °F 79% 29.55 in 10.0 mi WNW 11.5 mph - N/A   Overcast
1:55 AM 10.4 °F -4.1 °F 3.2 °F 73% 29.56 in 10.0 mi WNW 11.5 mph 21.9 mph N/A   Overcast
2:15 AM 10.4 °F -4.8 °F 3.2 °F 73% 29.56 in 10.0 mi WNW 12.7 mph 17.3 mph N/A   Overcast
2:35 AM 10.4 °F -2.4 °F 3.2 °F 73% 29.57 in 10.0 mi WNW 9.2 mph 19.6 mph N/A   Overcast
2:55 AM 10.4 °F -5.4 °F 3.2 °F 73% 29.57 in 10.0 mi WNW 13.8 mph 19.6 mph N/A   Overcast
3:15 AM 10.4 °F -4.1 °F 3.2 °F 73% 29.57 in 10.0 mi WNW 11.5 mph 17.3 mph N/A   Overcast
3:35 AM 8.6 °F -7.0 °F 3.2 °F 79% 29.58 in 10.0 mi WNW 12.7 mph 18.4 mph N/A   Overcast
3:55 AM 8.6 °F -6.3 °F 3.2 °F 79% 29.59 in 10.0 mi WNW 11.5 mph 16.1 mph N/A   Overcast
4:15 AM 8.6 °F -7.0 °F 3.2 °F 79% 29.59 in 10.0 mi WNW 12.7 mph 18.4 mph N/A   Overcast
4:35 AM 8.6 °F -6.3 °F 3.2 °F 79% 29.59 in 10.0 mi WNW 11.5 mph - N/A   Overcast
4:55 AM 8.6 °F -7.0 °F 1.4 °F 73% 29.60 in 10.0 mi WNW 12.7 mph - N/A   Overcast
5:15 AM 8.6 °F -5.5 °F 1.4 °F 73% 29.60 in 10.0 mi WNW 10.4 mph - N/A   Overcast
5:35 AM 8.6 °F -3.7 °F 1.4 °F 73% 29.60 in 10.0 mi WNW 8.1 mph 16.1 mph N/A   Overcast
5:55 AM 8.6 °F -4.7 °F 1.4 °F 73% 29.61 in 10.0 mi WNW 9.2 mph - N/A   Overcast
6:15 AM 6.8 °F -6.9 °F 1.4 °F 79% 29.62 in 10.0 mi WNW 9.2 mph - N/A   Overcast
6:35 AM 6.8 °F -8.6 °F -0.4 °F 72% 29.63 in 10.0 mi WNW 11.5 mph 17.3 mph N/A   Overcast
6:55 AM 5.0 °F -8.1 °F -0.4 °F 78% 29.64 in 10.0 mi WNW 8.1 mph 16.1 mph N/A   Overcast
7:15 AM 5.0 °F -9.1 °F -0.4 °F 78% 29.65 in 10.0 mi WNW 9.2 mph - N/A   Overcast
7:55 AM 3.2 °F -9.1 °F -2.2 °F 78% 29.67 in 10.0 mi WNW 6.9 mph - N/A   Scattered Clouds
8:15 AM 5.0 °F -8.1 °F -2.2 °F 72% 29.68 in 10.0 mi WNW 8.1 mph - N/A   Clear
8:35 AM 5.0 °F -10.8 °F -2.2 °F 72% 29.68 in 10.0 mi NW 11.5 mph - N/A   Clear
8:55 AM 5.0 °F -11.6 °F -2.2 °F 72% 29.70 in 10.0 mi WNW 12.7 mph - N/A   Scattered Clouds
9:15 AM 5.0 °F -8.1 °F -2.2 °F 72% 29.70 in 10.0 mi WNW 8.1 mph - N/A   Scattered Clouds
9:35 AM 8.6 °F -6.3 °F -2.2 °F 62% 29.71 in 10.0 mi WNW 11.5 mph 16.1 mph N/A   Clear
9:55 AM 8.6 °F -7.7 °F -0.4 °F 67% 29.72 in 10.0 mi WNW 13.8 mph 18.4 mph N/A   Clear
10:15 AM 8.6 °F -5.5 °F -0.4 °F 67% 29.73 in 10.0 mi NW 10.4 mph 16.1 mph N/A   Clear
10:35 AM 10.4 °F -3.3 °F -0.4 °F 62% 29.73 in 10.0 mi NW 10.4 mph 16.1 mph N/A   Clear
10:55 AM 10.4 °F -4.1 °F -0.4 °F 62% 29.73 in 10.0 mi NW 11.5 mph 17.3 mph N/A   Scattered Clouds
11:15 AM 10.4 °F -2.4 °F -0.4 °F 62% 29.74 in 10.0 mi NW 9.2 mph - N/A   Scattered Clouds
11:35 AM 10.4 °F -6.6 °F -0.4 °F 62% 29.73 in 10.0 mi NW 16.1 mph 20.7 mph N/A   Scattered Clouds
11:55 AM 12.2 °F -3.1 °F -0.4 °F 57% 29.74 in 10.0 mi NW 13.8 mph - N/A   Mostly Cloudy
12:15 PM 12.2 °F -0.2 °F -0.4 °F 57% 29.74 in 10.0 mi NW 9.2 mph 16.1 mph N/A   Mostly Cloudy
12:35 PM 12.2 °F -3.7 °F -0.4 °F 57% 29.75 in 10.0 mi NW 15.0 mph 20.7 mph N/A   Overcast
12:55 PM 12.2 °F -3.7 °F -0.4 °F 57% 29.75 in 10.0 mi NW 15.0 mph 19.6 mph N/A   Overcast
1:15 PM 12.2 °F -3.7 °F -0.4 °F 57% 29.76 in 7.0 mi WNW 15.0 mph 20.7 mph N/A   Overcast
1:35 PM 12.2 °F -4.3 °F -0.4 °F 57% 29.77 in 10.0 mi NW 16.1 mph - N/A   Overcast
1:55 PM 12.2 °F -1.8 °F -0.4 °F 57% 29.78 in 10.0 mi WNW 11.5 mph 18.4 mph N/A   Overcast
2:15 PM 10.4 °F -4.8 °F -0.4 °F 62% 29.78 in 10.0 mi NNW 12.7 mph - N/A   Overcast
2:35 PM 10.4 °F -6.0 °F -0.4 °F 62% 29.79 in 10.0 mi WNW 15.0 mph 18.4 mph N/A   Overcast
2:55 PM 10.4 °F -4.8 °F -0.4 °F 62% 29.80 in 10.0 mi NW 12.7 mph 20.7 mph N/A   Overcast
3:15 PM 10.4 °F -5.4 °F -0.4 °F 62% 29.81 in 10.0 mi NNW 13.8 mph - N/A   Overcast
3:35 PM 10.4 °F -3.3 °F 1.4 °F 67% 29.82 in 10.0 mi WNW 10.4 mph 19.6 mph N/A   Overcast
3:55 PM 10.4 °F -5.4 °F -0.4 °F 62% 29.83 in 10.0 mi WNW 13.8 mph 18.4 mph N/A   Overcast
4:15 PM 8.6 °F -6.3 °F -0.4 °F 67% 29.84 in 5.0 mi NW 11.5 mph 25.3 mph N/A   Haze
4:35 PM 8.6 °F -3.7 °F -0.4 °F 67% 29.86 in 7.0 mi NW 8.1 mph 21.9 mph N/A   Overcast
4:55 PM 8.6 °F -1.3 °F -0.4 °F 67% 29.87 in 7.0 mi NW 5.8 mph - N/A   Overcast
5:15 PM 8.6 °F -3.7 °F -0.4 °F 67% 29.88 in 10.0 mi NW 8.1 mph - N/A   Mostly Cloudy
5:35 PM 6.8 °F -4.8 °F 1.4 °F 79% 29.90 in 5.0 mi NW 6.9 mph - N/A Snow Light Snow
5:55 PM 6.8 °F -2.0 °F 1.4 °F 79% 29.91 in 4.0 mi NW 4.6 mph - N/A Snow Light Snow
6:15 PM 6.8 °F -4.8 °F 1.4 °F 79% 29.92 in 3.0 mi NW 6.9 mph - N/A Snow Light Snow
6:35 PM 5.0 °F -8.1 °F -0.4 °F 78% 29.93 in 7.0 mi NW 8.1 mph - N/A   Overcast
6:55 PM 5.0 °F -8.1 °F -2.2 °F 72% 29.94 in 10.0 mi NW 8.1 mph - N/A   Mostly Cloudy
7:15 PM 3.2 °F -9.1 °F -2.2 °F 78% 29.95 in 10.0 mi WNW 6.9 mph - N/A   Clear
7:35 PM 3.2 °F -7.8 °F -2.2 °F 78% 29.96 in 10.0 mi WNW 5.8 mph - N/A   Scattered Clouds
7:55 PM 3.2 °F -11.3 °F -4.0 °F 72% 29.96 in 10.0 mi WNW 9.2 mph - N/A   Clear
8:15 PM 3.2 °F -10.3 °F -4.0 °F 72% 29.97 in 10.0 mi WNW 8.1 mph - N/A   Mostly Cloudy
8:35 PM 3.2 °F -11.3 °F -4.0 °F 72% 29.97 in 10.0 mi NW 9.2 mph - N/A   Mostly Cloudy
8:55 PM 3.2 °F -7.8 °F -5.8 °F 66% 29.98 in 10.0 mi WNW 5.8 mph - N/A   Scattered Clouds
9:15 PM 1.4 °F -11.3 °F -5.8 °F 72% 29.99 in 10.0 mi NW 6.9 mph - N/A   Clear
9:35 PM 1.4 °F -9.9 °F -5.8 °F 72% 30.00 in 10.0 mi WNW 5.8 mph - N/A   Clear
9:55 PM 1.4 °F -9.9 °F -5.8 °F 72% 30.01 in 10.0 mi WNW 5.8 mph - N/A   Scattered Clouds
10:15 PM 1.4 °F -8.3 °F -5.8 °F 72% 30.01 in 10.0 mi WNW 4.6 mph - N/A   Scattered Clouds
10:35 PM 1.4 °F -12.5 °F -5.8 °F 72% 30.01 in 10.0 mi NW 8.1 mph - N/A   Clear
10:55 PM 1.4 °F -11.3 °F -5.8 °F 72% 30.02 in 10.0 mi WNW 6.9 mph - N/A   Clear
11:15 PM 1.4 °F - -5.8 °F 72% 30.02 in 10.0 mi Calm Calm - N/A   Clear
11:35 PM -0.4 °F -12.0 °F -5.8 °F 78% 30.02 in 10.0 mi WNW 5.8 mph - N/A   Clear